NUDTSAT (42787 NORAD) Tracking and Keplerian Element Data

This shows tracking and keplerian element data for the satellite.

Feedback or suggestion? Click here.




ElementValue
Catalog42787
NameNUDTSAT
Epoch Orbit5904
Epoch Day198.92759558
Epoch Year2018
RAAN258.4286
Inclination97.3998
Eccentricity0.001099
Argument of Perigee336.2394
Mean Anonmoly23.8334
Mean Motion15.22336938
Decay Rate1.344E-05
L11 42787U 17036Y 18198.92759558 .00001344 00000-0 61272-4 0 9996
L22 42787 97.3998 258.4286 0010990 336.2394 23.8334 15.22336938 59042

Live tracking and technical data element details for NUDTSAT (NORAD 42787). NUDTSAT can be tracked NOW for your location showing map with azimuth and elevation plus other details from your city location.

Track the satellite on the map from your city or location and see movement details for azimuth, elevation, latitude, longitude, range, height, and movement on the map or in text.







IsCatalogInMostPopularTable: catalog: 42787, numindb: 95
Update: records affected: 1



GetName: 42787 NUDTSAT

Hit Count: updated at: Thu, 19 Jul 2018 03:59:17 GMT